Meteo pe oră la Aliganj

Astăzi, 26 Ianuarie, Marţi

Timp Temperatura Precipitaţii Vânt Presiune Umiditate
00:00 +10°C° 0 mm 2 m/s 747 mmHg 66%
01:00 +9°C° 0 mm 2 m/s 747 mmHg 68%
02:00 +9°C° 0 mm 2 m/s 746 mmHg 70%
03:00 +8°C° 0 mm 2 m/s 746 mmHg 69%
04:00 +8°C° 0 mm 2 m/s 746 mmHg 69%
05:00 +8°C° 0 mm 2 m/s 746 mmHg 69%
06:00 +9°C° 0 mm 2 m/s 747 mmHg 65%
07:00 +10°C° 0 mm 2 m/s 747 mmHg 61%
08:00 +10°C° 0 mm 2 m/s 748 mmHg 57%
09:00 +14°C° 0 mm 2 m/s 748 mmHg 52%
10:00 +17°C° 0 mm 2 m/s 748 mmHg 48%
11:00 +20°C° 0 mm 1 m/s 748 mmHg 43%
12:00 +20°C° 0 mm 2 m/s 747 mmHg 40%
13:00 +21°C° 0 mm 2 m/s 747 mmHg 36%
14:00 +23°C° 0 mm 2 m/s 746 mmHg 32%
15:00 +21°C° 0 mm 2 m/s 746 mmHg 37%
16:00 +19°C° 0 mm 2 m/s 746 mmHg 41%
17:00 +18°C° 0 mm 2 m/s 746 mmHg 45%
18:00 +17°C° 0 mm 2 m/s 746 mmHg 48%
19:00 +15°C° 0 mm 2 m/s 746 mmHg 50%
20:00 +14°C° 0 mm 2 m/s 747 mmHg 52%
21:00 +13°C° 0 mm 2 m/s 747 mmHg 54%
22:00 +13°C° 0 mm 2 m/s 747 mmHg 55%
23:00 +12°C° 0 mm 2 m/s 747 mmHg 57%

Mâine, 27 Ianuarie, Miercuri

Timp Temperatura Precipitaţii Vânt Presiune Umiditate
00:00 +12°C° 0 mm 2 m/s 747 mmHg 58%
01:00 +10°C° 0 mm 2 m/s 746 mmHg 59%
02:00 +10°C° 0 mm 2 m/s 746 mmHg 59%
03:00 +10°C° 0 mm 2 m/s 746 mmHg 62%
04:00 +9°C° 0 mm 2 m/s 746 mmHg 64%
05:00 +9°C° 0 mm 2 m/s 746 mmHg 66%
06:00 +10°C° 0 mm 2 m/s 747 mmHg 63%
07:00 +12°C° 0 mm 2 m/s 747 mmHg 61%
08:00 +12°C° 0 mm 2 m/s 748 mmHg 59%
09:00 +15°C° 0 mm 2 m/s 748 mmHg 52%
10:00 +18°C° 0 mm 2 m/s 748 mmHg 45%
11:00 +20°C° 0 mm 2 m/s 748 mmHg 38%
12:00 +21°C° 0 mm 2 m/s 747 mmHg 35%
13:00 +23°C° 0 mm 2 m/s 747 mmHg 32%
14:00 +24°C° 0 mm 2 m/s 746 mmHg 29%
15:00 +21°C° 0 mm 2 m/s 746 mmHg 33%
16:00 +20°C° 0 mm 2 m/s 745 mmHg 37%
17:00 +20°C° 0 mm 1 m/s 745 mmHg 41%
18:00 +18°C° 0 mm 1 m/s 746 mmHg 42%
19:00 +16°C° 0 mm 1 m/s 746 mmHg 44%
20:00 +14°C° 0 mm 1 m/s 746 mmHg 45%
21:00 +14°C° 0 mm 1 m/s 746 mmHg 46%
22:00 +13°C° 0 mm 1 m/s 747 mmHg 48%
23:00 +12°C° 0 mm 1 m/s 747 mmHg 49%

Poimâine, 28 Ianuarie, Joi

Timp Temperatura Precipitaţii Vânt Presiune Umiditate
00:00 +12°C° 0 mm 1 m/s 747 mmHg 50%
01:00 +11°C° 0 mm 1 m/s 746 mmHg 52%
02:00 +11°C° 0 mm 1 m/s 746 mmHg 53%
03:00 +11°C° 0 mm 1 m/s 746 mmHg 54%
04:00 +10°C° 0 mm 1 m/s 746 mmHg 55%
05:00 +10°C° 0 mm 1 m/s 746 mmHg 56%
06:00 +11°C° 0 mm 1 m/s 747 mmHg 53%
07:00 +12°C° 0 mm 1 m/s 747 mmHg 51%
08:00 +12°C° 0 mm 0 m/s 748 mmHg 49%
09:00 +14°C° 0 mm 0 m/s 748 mmHg 44%
10:00 +17°C° 0 mm 0 m/s 749 mmHg 40%
11:00 +20°C° 0 mm 0 m/s 749 mmHg 35%
12:00 +22°C° 0 mm 1 m/s 748 mmHg 32%
13:00 +23°C° 0 mm 1 m/s 747 mmHg 29%
14:00 +24°C° 0 mm 1 m/s 747 mmHg 27%
15:00 +22°C° 0 mm 1 m/s 747 mmHg 31%
16:00 +21°C° 0 mm 1 m/s 746 mmHg 35%
17:00 +19°C° 0 mm 1 m/s 746 mmHg 39%
18:00 +18°C° 0 mm 1 m/s 746 mmHg 41%
19:00 +16°C° 0 mm 1 m/s 747 mmHg 44%
20:00 +14°C° 0 mm 1 m/s 747 mmHg 46%
21:00 +14°C° 0 mm 2 m/s 747 mmHg 48%
22:00 +13°C° 0 mm 2 m/s 748 mmHg 49%
23:00 +13°C° 0 mm 2 m/s 748 mmHg 50%

29 Ianuarie, Vineri

Timp Temperatura Precipitaţii Vânt Presiune Umiditate
00:00 +12°C° 0 mm 2 m/s 747 mmHg 49%
01:00 +12°C° 0 mm 2 m/s 747 mmHg 47%
02:00 +10°C° 0 mm 2 m/s 747 mmHg 46%
03:00 +10°C° 0 mm 2 m/s 747 mmHg 45%
04:00 +9°C° 0 mm 2 m/s 747 mmHg 45%
05:00 +9°C° 0 mm 2 m/s 747 mmHg 44%
06:00 +9°C° 0 mm 2 m/s 748 mmHg 44%
07:00 +10°C° 0 mm 2 m/s 748 mmHg 44%
08:00 +12°C° 0 mm 2 m/s 749 mmHg 44%
09:00 +15°C° 0 mm 2 m/s 749 mmHg 39%
10:00 +17°C° 0 mm 2 m/s 749 mmHg 35%
11:00 +20°C° 0 mm 2 m/s 749 mmHg 30%
12:00 +21°C° 0 mm 2 m/s 748 mmHg 29%
13:00 +23°C° 0 mm 2 m/s 748 mmHg 28%
14:00 +24°C° 0 mm 3 m/s 747 mmHg 26%
15:00 +21°C° 0 mm 3 m/s 747 mmHg 30%
16:00 +20°C° 0 mm 3 m/s 746 mmHg 34%
17:00 +18°C° 0 mm 3 m/s 746 mmHg 38%
18:00 +17°C° 0 mm 3 m/s 746 mmHg 38%
19:00 +14°C° 0 mm 3 m/s 747 mmHg 39%
20:00 +13°C° 0 mm 3 m/s 747 mmHg 39%
21:00 +12°C° 0 mm 3 m/s 747 mmHg 39%
22:00 +12°C° 0 mm 3 m/s 747 mmHg 39%
23:00 +11°C° 0 mm 3 m/s 747 mmHg 39%

30 Ianuarie, Sâmbătă

Timp Temperatura Precipitaţii Vânt Presiune Umiditate
00:00 +10°C° 0 mm 3 m/s 747 mmHg 39%
01:00 +10°C° 0 mm 3 m/s 747 mmHg 40%
02:00 +9°C° 0 mm 3 m/s 746 mmHg 40%
03:00 +9°C° 0 mm 3 m/s 746 mmHg 40%
04:00 +8°C° 0 mm 3 m/s 746 mmHg 40%
05:00 +8°C° 0 mm 3 m/s 746 mmHg 41%
06:00 +9°C° 0 mm 3 m/s 746 mmHg 41%
07:00 +10°C° 0 mm 3 m/s 747 mmHg 41%
08:00 +10°C° 0 mm 3 m/s 748 mmHg 41%
09:00 +13°C° 0 mm 3 m/s 748 mmHg 36%
10:00 +17°C° 0 mm 4 m/s 748 mmHg 30%
11:00 +20°C° 0 mm 4 m/s 748 mmHg 25%
12:00 +21°C° 0 mm 4 m/s 747 mmHg 24%
13:00 +22°C° 0 mm 5 m/s 747 mmHg 23%
14:00 +23°C° 0 mm 5 m/s 746 mmHg 22%
15:00 +21°C° 0 mm 4 m/s 746 mmHg 27%
16:00 +19°C° 0 mm 3 m/s 746 mmHg 32%
17:00 +18°C° 0 mm 3 m/s 745 mmHg 37%
18:00 +16°C° 0 mm 3 m/s 746 mmHg 38%
19:00 +14°C° 0 mm 3 m/s 746 mmHg 39%
20:00 +13°C° 0 mm 2 m/s 747 mmHg 40%
21:00 +12°C° 0 mm 3 m/s 747 mmHg 40%
22:00 +11°C° 0 mm 3 m/s 747 mmHg 40%
23:00 +11°C° 0 mm 3 m/s 747 mmHg 41%

31 Ianuarie, Duminică

Timp Temperatura Precipitaţii Vânt Presiune Umiditate
00:00 +10°C° 0 mm 3 m/s 747 mmHg 42%
01:00 +10°C° 0 mm 2 m/s 747 mmHg 42%
02:00 +9°C° 0 mm 2 m/s 747 mmHg 43%
03:00 +9°C° 0 mm 2 m/s 747 mmHg 43%
04:00 +9°C° 0 mm 2 m/s 747 mmHg 43%
05:00 +8°C° 0 mm 2 m/s 746 mmHg 43%
06:00 +9°C° 0 mm 2 m/s 747 mmHg 42%
07:00 +11°C° 0 mm 1 m/s 748 mmHg 42%
08:00 +12°C° 0 mm 1 m/s 748 mmHg 41%
09:00 +15°C° 0 mm 1 m/s 749 mmHg 36%
10:00 +17°C° 0 mm 2 m/s 749 mmHg 31%
11:00 +20°C° 0 mm 2 m/s 749 mmHg 26%
12:00 +21°C° 0 mm 2 m/s 749 mmHg 24%
13:00 +23°C° 0 mm 2 m/s 748 mmHg 22%
14:00 +24°C° 0 mm 2 m/s 747 mmHg 20%
15:00 +23°C° 0 mm 2 m/s 747 mmHg 25%
16:00 +20°C° 0 mm 2 m/s 747 mmHg 29%
17:00 +18°C° 0 mm 2 m/s 746 mmHg 33%
18:00 +18°C° 0 mm 1 m/s 747 mmHg 34%
19:00 +15°C° 0 mm 1 m/s 748 mmHg 35%
20:00 +14°C° 0 mm 1 m/s 748 mmHg 36%
21:00 +13°C° 0 mm 1 m/s 748 mmHg 37%
22:00 +13°C° 0 mm 1 m/s 748 mmHg 39%
23:00 +12°C° 0 mm 1 m/s 749 mmHg 40%
Arată mai mult

Formular de consimțământ

Meteoprog și furnizorii noștri de servicii pot stoca și accesa date personale, precum cookies, identificatori de dispozitiv sau alte tehnologii similare pe dispozitivul dumneavoastră și procesa astfel de date pentru a personaliza conținutul și reclamele, dar și pentru a oferi caracteristici de social media și pentru a analiza traficul.

  • Stocarea și/sau accesarea informațiilor pe dispozitivul dumneavoastră

    Cookies, identificatori de dispozitiv sau alte informații pot fi stocate sau accesate pe dispozitiv în scopurile indicate mai sus.

  • Reclame și conținut personalizat, evaluarea reclamelor și a conținutului, informații despre audiențe și dezvoltarea produselor

    Reclamele și conținutul pot fi personalizate pe baza unui profil. Pot fi adăugate date suplimentare pentru a personaliza mai bine reclamele și conținutul. Performanța reclamelor și conținutului poate fi măsurată. Pot fi obținute informații despre utilizatorii care au văzut reclamele și conținutul. Aceste date pot fi utilizate pentru a dezvolta sau îmbunătăți experiența utilizatorilor, sistemele și software-ul.

Dând clic pe ‘Sunt de acord’, permiteți utilizarea cookie-urilor menționate, a identificatorilor de dispozitiv, balizelor web sau altor tehnologii similare. Setările pot fi modificate din browser-ul dispozitivului dumneavoastră.

În anumite scopuri, interesele legitime pot prima asupra consimțământului. Puteți citi mai multe informații în acest sens în Politica privind Confidențialitatea Datelor și Cookie.